Regional Weather Roundup
Issued by NWS Boston, MA

Home | Current Version | Previous Version | Text Only | Print | Product List | Glossary On
Versions: 1 2 3 4 5 6 7 8 9 10 11 12 13 14 15 16 17 18 19 20 21 22 23 24 25 26 27
000
ASUS41 KBOX 210010
RWRBOX

REGIONAL WEATHER ROUNDUP
NATIONAL WEATHER SERVICE TAUNTON MA
800 PM EDT FRI OCT 20 2017

NOTE:  "FAIR" INDICATES FEW OR NO CLOUDS BELOW 12,000 FEET WITH NO
SIGNIFICANT WEATHER AND/OR OBSTRUCTIONS TO VISIBILITY.

MAZALL-210100-
EASTERN MASSACHUSETTS

CITY           SKY/WX    TMP DP  RH WIND       PRES   REMARKS
BOSTON         PTCLDY    65  35  33 W10       30.07R
6HR MIN TEMP:  65; 6HR MAX TEMP:  71;

BEVERLY        CLEAR     61  36  39 W5        30.06R
LAWRENCE       CLEAR     62  37  39 W7        30.09R
BEDFORD        CLEAR     60  32  34 NW6       30.07R
BLUE HILL        N/A     59  34  39 NW10      30.07R
NORWOOD        CLEAR     52  41  66 CALM      30.08R
MARSHFIELD     CLEAR     59  39  47 VRB5      30.05R
PLYMOUTH       CLEAR     61  37  41 W6        30.07R
TAUNTON        CLEAR     53  41  63 CALM      30.07R
NEW BEDFORD    CLEAR     57  40  52 W6        30.06R
$$

MAZALL-210100-
CAPE COD AND THE ISLANDS

CITY           SKY/WX    TMP DP  RH WIND       PRES   REMARKS
FALMOUTH       CLEAR     57  43  58 W9        30.07R
HYANNIS        CLEAR     54  45  71 W6        30.05R
CHATHAM        CLEAR     53  48  83 CALM      30.06R
PROVINCETOWN   CLEAR     61  48  62 NW9       30.05R
NANTUCKET      CLEAR     57  53  86 W7        30.06R
MARTHAS VNYRD  CLEAR     56  46  69 W7        30.06R
$$

MAZALL-210100-
CENTRAL AND WESTERN MASSACHUSETTS

CITY           SKY/WX    TMP DP  RH WIND       PRES   REMARKS
WORCESTER      CLEAR     56  33  42 W8        30.11R
6HR MIN TEMP:  56; 6HR MAX TEMP:  67; 6HR PCP: TRACE;

FITCHBURG      CLEAR     58  40  51 W9        30.10R
ORANGE         CLEAR     49  41  74 CALM      30.11R
SPRINGFIELD    PTCLDY    56  37  48 CALM      30.10R
WESTFIELD      CLEAR     52  41  66 CALM      30.11R
NORTH ADAMS    CLEAR     50  39  66 NW6       30.13R
PITTSFIELD     CLEAR     56  32  40 NW7       30.14R
$$

RIZALL-210100-
RHODE ISLAND

CITY           SKY/WX    TMP DP  RH WIND       PRES   REMARKS
PROVIDENCE     CLEAR     61  41  47 W6        30.10R
6HR MIN TEMP:  61; 6HR MAX TEMP:  72;

NEWPORT        CLEAR     62  44  51 NW8       30.09R
BLOCK ISLAND   CLEAR     63  46  54 NW8       30.12R
SMITHFIELD     CLEAR     56  39  53 W5        30.10R
WESTERLY       CLEAR     61  40  45 CALM      30.12R
$$

CTZALL-210100-
CONNECTICUT

CITY           SKY/WX    TMP DP  RH WIND       PRES   REMARKS
BRADLEY INTL   CLEAR     57  41  55 W5        30.12R
6HR MIN TEMP:  56; 6HR MAX TEMP:  72;

HARTFORD       CLEAR     57  44  62 S3        30.12R
BRIDGEPORT     CLEAR     66  36  32 W3        30.14R
DANBURY        CLEAR     54  41  61 CALM      30.16R
GROTON         CLEAR     55  43  63 CALM      30.12R
NEW HAVEN      CLEAR     64  41  42 NW3       30.14R
CHESTER        FAIR      61  39  44 CALM      30.14R
MERIDEN        CLEAR     54  41  61 CALM      30.13R
WILLIMANTIC    CLEAR     54  43  66 CALM      30.12R
OXFORD         CLEAR     55  39  54 CALM      30.15R
$$

MEZ002-015-021-024-NHZ003-005-008-011-012-014-VTZ005-008-210100-
NORTHERN NEW ENGLAND

CITY           SKY/WX    TMP DP  RH WIND       PRES   REMARKS
PORTLAND ME    PTCLDY    59  33  37 NW8       30.04R
6HR MIN TEMP:  55; 6HR MAX TEMP:  70;

BANGOR ME      CLEAR     55  35  47 NW6       30.01R
CONCORD NH     CLEAR     62  32  32 NW3       30.09R
MANCHESTER NH  CLEAR     62  33  33 N5        30.07R
NASHUA NH      CLEAR     58  38  47 W6        30.09R
PORTSMOUTH NH  CLEAR     60  34  37 W8        30.04R
JAFFREY NH     CLEAR     59  36  42 VRB3      30.12R
KEENE NH       CLEAR     50  39  66 CALM      30.12R
BURLINGTON VT  CLEAR     53  39  59 CALM      30.13R
MT. WASHINGTON PTCLDY    36  25  64 NW78G91     N/A  WCI  17
$$

NYZ052-076-210100-
EASTERN NEW YORK

CITY           SKY/WX    TMP DP  RH WIND       PRES   REMARKS
ALBANY         PTCLDY    60  36  40 W12       30.15R
6HR MIN TEMP:  59; 6HR MAX TEMP:  71;

NEW YORK CITY  PTCLDY    70  39  32 NW10      30.15R
6HR MIN TEMP:  70; 6HR MAX TEMP:  74;

$$

ANZALL-210100-
MARINE OBSERVATIONS

STATION/POSITION TIME  TEMP    WIND        PRES    VSBY  WAVE
                       AIR SEA DIR/SP/G                  HT/PER
                 (UTC) (F)     (DEG/KT/KT) (MB)    (MI)  (FT/S)
BOSTON BUOY      2350   62 59  290/ 10/ 10 1017.3R         1/ 9
BUZZARDS BAY     2300   67     290/ 14/ 15 1018.4R
NANTUCKET SOUND  2350   63 62  270/  8/ 10 1017.8R         1
MASS BAY-STELLWA 2304   64 59  310/ 12/ 14 1016.4R         1/ 3
ISLE OF SHOALS   2300   64     280/ 12/ 13 1016.6R
S OF BLOCK IS    NOT AVBL
$$

......................KEY.........................
  SKY/WX - SKY CONDITION/PRESENT WEATHER
  TMP    - TEMPERATURE IN FAHRENHEIT
  DWPT   - DEWPOINT IN FAHRENHEIT
  RH     - RELATIVE HUMIDITY IN PERCENT
  WIND   - DIRECTION AND SPEED IN MPH
  PRES   - MEAN SEA LEVEL PRESSURE IN INCHES OF HG
  WCI    - WIND CHILL INDEX
  VSB    - VISIBILITY IN MILES
  HX     - HEAT INDEX
  TC     - TEMPERATURE IN CELSIUS
  VRB    - VARIABLE WIND DIRECTION
  N/A    - NOT AVAILABLE




USA.gov is the U.S. government's official web portal to all federal, state and local government web resources and services.